Voltar ao catálogo

SL-3 DEB

AtivoPO
NORAD 11290·DEBRIS·🇷🇺 Russia

Lançado Mar 1, 1979 de Plesetsk Cosmodrome

Loading…

Próximas Passagens (próximas 24 horas)

TLE

AtualizadoSource: Space-Track

Época: Sep 13, 2026, 20:40 UTC

1 11290U 79021C   26256.86116036  .00000002  00000-0 -55779-5 0  9995
2 11290  81.2020  50.4271 0030774 194.2038 165.8272 14.11263705446583

Acompanhe SL-3 DEB em tempo real com AllMySat

Download on the App Store